Location: Newark
(45.2500°N, 7.5833°E)
Time: 20:53:29
(UTC+00:00)

SR - Pass Details

Date: 03 February 2020
Orbit: 575 x 880 km, 66.7° (Epoch: 22 February)

Event Time Altitude Azimuth Distance (km) Brightness Sun altitude
Exits shadow 03:52:47 53° 66° (ENE) 945 ? -31.1°
Drops below altitude 10° 03:57:25 10° 129° (SE) 2,209 ? -30.3°
Sets 03:59:43 0° 134° (SE) 3,076 ? -29.9°
